Temp
7 7 7 7 7 7 7 7 7 7 7 7 7 7 7 7 7 7 8 8 8 7 8 8 7 8 7 7 8 8 7 7 8 8 8 10 11 10 11 11 10 11 11 11 11 11 11 10 10 11 12 13 12 12 13 13 14 15 16 16 17 17 17 19 20 20 21 21 20 20 19 22 21 20 20 19 19 18 17 17 17 16 16 16 17 17 17 17
6 7 7 7 7 7 7 7 7 7 7 7 7 7 7 7 7 7 7 7 7 7 7 7 7 8 7 7 8 7 7 8 8 8 9 10 11 11 11 11 11 11 11 11 11 10 10 9 9 9 10 12 12 12 13 14 14 15 16 16 17 18 18 19 20 20 21 20 19 19 18 19 19 18 19 20 19 18 18 18 17 17 17 17 17 17 17 17
6 6 6 6 6 7 7 7 7 7 7 7 7 7 7 7 7 7 7 7 7 7 7 7 7 7 7 7 7 7 7 7 8 9 10 10 10 11 11 11 11 11 11 11 11 10 10 9 9 10 9 11 12 12 12 13 14 15 16 16 17 18 18 20 20 20 19 19 19 19 18 18 17 17 19 19 18 17 18 17 17 18 18 17 17 17 17 17
6 6 6 6 6 7 7 7 7 7 7 7 7 7 7 7 7 7 7 7 7 7 7 7 7 7 7 7 7 7 7 8 9 10 10 10 10 11 10 11 11 11 11 11 11 10 10 9 10 10 10 10 11 11 12 13 14 15 15 16 17 18 18 19 19 19 19 19 19 18 18 17 16 16 17 18 19 17 16 16 16 17 18 17 17 17 17 16
6 6 6 6 6 7 7 6 7 7 6 7 7 7 7 7 7 7 7 7 7 7 7 7 7 7 7 7 7 7 7 9 10 10 10 10 10 10 10 10 11 11 11 11 11 10 10 9 9 10 10 10 10 11 11 12 13 14 15 16 17 17 18 18 18 18 18 19 19 19 18 17 16 14 14 16 17 15 13 13 14 16 16 15 15 15 14 14
6 6 6 7 7 6 6 6 6 6 6 6 6 7 7 7 7 7 7 7 7 7 7 7 7 7 7 6 7 7 7 9 10 9 9 9 9 10 10 10 11 11 11 11 10 10 9 9 10 10 9 9 9 10 11 12 13 13 15 16 16 17 17 17 17 17 18 19 19 18 17 17 15 13 12 12 12 11 11 12 12 12 12 12 12 12 12 11
6 6 6 6 6 6 6 6 6 6 6 6 6 6 7 7 7 7 7 7 7 7 7 7 7 6 6 6 7 6 6 7 9 9 9 9 10 10 10 10 10 11 11 10 10 9 9 9 10 10 9 9 10 9 10 11 12 12 14 16 16 16 16 16 17 17 18 19 18 17 17 17 15 14 12 11 10 10 10 11 10 10 10 10 10 10 10 10
6 6 6 6 6 6 6 6 6 7 7 6 6 7 7 7 6 6 7 6 6 7 7 7 7 6 6 7 6 6 5 7 9 9 9 9 10 10 10 10 10 11 11 10 10 9 9 9 9 9 8 9 10 9 10 11 12 12 13 15 16 16 16 15 16 16 17 17 17 17 17 15 14 13 11 10 10 10 9 9 9 9 9 9 9 9 9 9
6 6 6 6 6 6 6 6 6 7 7 6 6 6 7 7 6 6 7 7 6 6 7 7 7 6 6 6 6 6 7 9 9 9 9 9 10 10 10 10 10 10 10 10 10 9 9 9 9 9 9 9 9 9 10 10 12 12 12 14 15 16 16 15 15 16 16 16 16 17 15 13 13 13 11 10 10 9 9 8 8 8 7 7 8 8 8 8
6 6 6 6 6 6 6 6 6 7 6 6 6 6 7 7 6 6 6 6 6 6 7 7 6 6 6 6 5 6 8 9 8 9 9 9 9 10 10 10 10 10 10 10 10 10 10 9 9 9 9 10 9 9 10 10 11 12 12 13 14 15 15 15 15 16 16 16 16 16 15 14 15 15 12 10 10 9 8 7 6 6 6 6 6 7 7 7
6 6 6 6 6 6 6 6 6 7 7 6 6 7 7 7 7 7 6 6 6 6 6 6 6 6 6 6 5 6 8 9 8 9 9 9 9 9 10 9 10 10 9 9 10 10 9 9 9 8 9 10 9 9 10 10 11 11 12 12 14 14 14 14 14 15 16 16 16 16 15 15 15 14 11 10 9 8 7 6 5 5 5 5 5 5 6 6
6 6 6 6 6 6 6 6 6 6 7 6 6 7 7 7 7 7 7 6 6 6 6 6 6 6 6 5 5 6 8 8 8 9 9 9 9 9 10 9 9 10 9 9 9 10 9 10 9 9 9 10 9 9 10 11 10 11 12 12 13 14 14 14 14 15 16 16 16 17 16 15 14 11 9 9 8 7 6 6 5 5 4 4 4 4 5 5
6 6 6 6 6 6 6 6 6 6 7 7 6 7 6 7 7 7 7 6 6 6 6 6 6 6 6 5 6 7 8 8 8 9 9 9 9 10 10 9 9 9 9 9 9 10 9 9 10 9 9 9 9 10 10 11 11 11 12 12 13 14 14 14 14 14 15 15 16 18 17 14 12 10 9 9 8 7 6 5 5 4 4 4 4 4 4 4
6 5 6 6 5 6 6 6 6 6 6 7 7 7 7 7 7 7 7 7 7 6 6 6 6 6 5 5 7 8 7 8 9 9 9 9 9 10 9 9 9 9 10 9 9 9 9 9 10 9 9 9 9 10 10 10 11 11 12 12 13 13 14 15 15 14 14 15 15 17 15 11 9 9 8 8 8 7 5 4 4 4 4 4 3 3 3 3
6 5 5 5 5 5 6 6 6 6 6 7 7 7 7 7 8 7 7 7 7 7 6 6 6 6 5 5 7 8 8 8 9 9 9 9 9 9 9 9 9 9 9 9 9 9 9 9 9 9 9 9 9 9 9 10 11 11 11 12 13 13 14 14 14 14 15 14 14 15 13 9 8 7 7 7 6 6 5 4 4 4 4 4 3 3 3 3
6 6 5 5 5 5 5 6 6 6 6 6 6 7 7 7 7 7 7 6 6 6 6 6 6 5 5 5 7 8 8 8 9 9 9 9 9 9 9 9 9 9 9 9 9 9 9 9 9 9 9 9 8 8 8 9 10 11 11 12 13 13 13 14 14 14 15 13 11 13 11 8 7 6 6 6 6 5 4 4 4 4 4 3 3 3 3 3
5 5 5 5 5 5 5 5 6 6 6 6 6 7 7 7 7 7 6 6 6 6 6 6 5 5 5 6 7 8 8 8 8 8 9 9 9 8 8 8 8 8 9 8 9 9 9 9 8 8 8 8 8 8 8 8 9 10 11 11 13 13 13 14 14 13 13 11 9 9 8 6 6 5 5 6 5 5 4 4 4 4 4 3 3 3 2 2
5 5 5 5 5 5 5 5 6 6 6 7 7 7 7 6 7 7 6 6 6 6 6 6 5 5 6 7 7 7 7 8 8 8 8 9 8 8 8 8 8 8 8 8 8 8 8 8 7 7 7 7 8 7 8 9 10 11 11 11 12 13 14 14 14 12 10 9 8 7 6 5 5 5 5 5 5 5 4 4 4 3 3 3 3 3 2 2
5 5 5 5 5 5 5 5 6 6 6 7 7 7 7 6 6 6 6 6 6 6 6 6 6 6 7 7 7 7 7 7 8 8 8 8 8 8 8 8 8 8 7 7 8 8 8 7 6 7 7 7 7 7 8 9 10 10 10 11 12 13 14 13 12 10 9 8 6 6 5 4 4 4 4 4 5 5 4 4 4 3 3 3 3 2 2 2
5 5 5 5 5 5 5 5 6 6 6 7 7 7 7 6 6 6 6 5 5 5 6 6 6 6 7 7 6 7 7 7 7 7 7 7 7 7 7 7 7 7 7 6 7 7 7 7 6 6 7 7 7 8 8 9 9 8 9 10 12 13 12 11 9 9 10 8 5 5 4 4 3 3 3 3 4 4 4 4 3 3 3 3 3 2 2 2
5 5 5 5 5 5 5 5 5 6 6 7 7 7 6 5 6 6 5 5 5 4 5 5 5 5 6 6 6 6 7 7 6 6 7 7 7 7 7 6 7 6 6 6 6 6 6 6 6 6 7 8 8 8 8 8 8 8 8 10 11 11 10 9 9 10 10 8 5 5 4 3 3 2 2 3 3 3 3 3 3 3 3 3 3 2 2 2
5 5 5 5 6 6 5 5 6 6 6 7 7 6 5 5 6 5 5 5 5 4 4 4 4 5 6 6 6 6 6 6 6 6 6 6 6 7 7 6 6 6 5 6 6 6 6 6 6 7 7 8 9 8 8 8 8 8 9 10 10 10 9 9 9 9 10 8 6 5 4 3 3 2 2 2 2 2 2 3 3 3 3 3 3 2 2 2
5 4 5 5 6 6 5 5 6 6 6 7 6 6 6 6 6 5 5 5 5 5 5 5 5 6 6 6 6 6 5 5 6 6 6 6 6 6 6 5 5 5 5 5 5 5 5 6 7 7 8 8 8 8 8 8 8 8 8 9 11 10 10 10 8 8 9 8 6 5 4 3 3 3 2 2 2 2 2 2 2 3 3 2 2 2 2 2
5 4 5 5 6 6 6 5 6 6 6 6 6 6 6 6 6 5 5 4 5 5 6 6 6 6 6 6 6 6 6 5 6 6 6 6 6 5 6 5 5 5 5 5 5 5 6 7 7 7 7 7 8 8 8 8 8 9 9 9 10 10 10 10 8 8 8 7 7 8 7 5 4 3 2 2 2 2 2 2 2 2 2 2 2 2 2 2
5 4 5 5 6 7 6 6 6 6 6 6 6 6 6 6 5 5 5 5 6 6 6 6 6 6 6 6 6 6 6 6 6 6 6 6 6 5 6 6 5 5 5 5 5 5 6 7 7 6 7 7 7 7 7 8 8 9 9 10 10 9 9 9 8 9 8 8 9 11 12 8 4 3 2 2 2 2 2 2 1 1 1 2 2 2 2 2
4 4 5 6 7 7 7 6 6 6 6 6 6 6 6 6 5 5 5 6 8 8 7 7 6 6 6 6 6 6 6 6 6 6 6 7 7 6 6 5 5 5 5 6 5 5 6 7 7 7 6 7 7 7 7 8 8 9 10 11 10 9 9 9 10 11 9 10 10 11 13 9 5 4 3 2 2 2 2 2 1 1 1 1 1 1 1 1
4 5 6 6 7 7 7 6 6 6 6 6 6 6 5 5 5 5 5 8 9 8 7 7 6 6 6 6 6 6 6 6 6 6 6 6 7 7 6 5 5 5 6 6 6 6 6 6 6 7 6 7 7 7 8 9 9 9 10 11 10 9 10 10 12 12 11 11 11 10 12 10 7 5 3 2 2 2 2 2 2 1 1 1 1 1 1 1
4 5 6 7 7 7 7 6 5 5 6 6 6 5 5 5 4 4 6 9 8 7 7 7 7 6 6 7 6 5 6 6 6 6 5 6 6 6 6 6 6 6 6 6 6 6 6 6 6 7 7 7 7 8 9 9 9 10 10 10 10 11 11 11 11 11 11 12 12 11 11 12 9 4 3 3 2 2 2 2 2 1 1 1 1 1 1 1
5 5 7 8 8 7 7 6 5 5 6 6 5 5 5 5 4 5 7 9 8 7 7 7 7 6 6 6 5 5 5 5 5 5 5 6 6 6 5 6 6 6 5 6 6 6 6 6 6 7 7 7 8 8 9 9 10 10 10 9 10 11 11 11 11 11 12 12 12 11 11 13 10 4 3 3 3 2 2 2 2 1 1 1 1 1 1 1
6 6 7 8 8 7 7 6 6 6 6 5 5 5 5 4 5 7 9 9 8 7 7 7 7 7 6 6 5 5 5 5 4 4 4 5 6 6 5 4 5 5 5 5 5 5 5 5 6 7 7 8 9 9 9 10 10 10 9 8 10 11 11 12 11 12 13 12 11 10 10 13 13 7 4 4 4 4 2 1 1 1 1 1 1 1 1 1
8 7 8 8 8 7 7 6 6 6 5 5 5 4 4 5 6 9 9 8 7 7 7 7 7 6 6 4 5 5 5 5 5 4 4 4 5 5 5 5 5 5 5 5 5 5 6 6 6 7 7 8 9 9 9 9 10 10 9 9 10 11 11 12 12 12 13 12 11 9 9 12 15 11 6 5 5 4 3 2 1 1 1 1 1 1 0 -0
8 8 8 8 8 8 7 6 6 6 5 5 4 4 5 7 8 8 8 8 7 7 6 6 6 6 4 4 5 5 5 5 5 5 5 5 6 5 5 6 6 6 6 6 6 5 6 7 7 8 7 8 9 8 9 9 10 10 9 10 11 11 11 12 12 12 12 11 10 10 10 12 13 10 6 6 5 3 3 3 2 2 1 1 1 -0 -1 -1
9 9 8 8 8 7 7 6 5 5 5 5 5 5 6 9 10 7 6 7 7 6 5 5 5 4 4 4 5 5 5 5 5 5 5 6 6 5 5 6 6 6 6 6 6 6 6 7 7 8 7 8 9 8 9 9 9 9 10 11 12 11 12 12 12 12 11 10 9 10 12 12 12 8 5 6 5 4 4 3 3 2 2 1 -0 -1 -1 -1
9 9 8 8 7 7 6 5 5 5 5 4 5 6 8 10 9 6 5 6 6 6 5 5 4 4 5 5 5 5 5 5 5 5 6 6 5 5 5 5 5 6 6 6 7 6 7 7 7 8 8 8 9 9 10 10 9 10 10 11 11 12 12 12 12 12 11 10 10 10 12 12 12 8 4 4 4 3 4 3 3 2 1 1 -0 -1 -1 -1
9 9 8 7 7 6 6 5 5 5 5 5 6 8 9 9 6 4 5 5 5 5 4 4 4 5 6 6 5 5 5 5 5 5 5 5 5 4 4 5 5 5 6 7 7 7 8 7 7 8 7 7 9 10 10 11 10 10 10 11 12 11 12 11 11 11 11 11 10 10 10 8 7 5 2 3 3 2 3 2 2 1 1 0 -0 -1 -0 -0
9 8 8 7 7 6 6 5 5 5 5 6 9 9 7 6 4 3 4 5 4 3 3 5 5 5 7 6 5 5 5 5 5 5 5 5 4 4 4 4 5 5 5 7 8 8 8 8 8 7 7 8 10 10 10 10 11 11 10 11 11 10 11 11 11 12 12 12 10 10 9 6 6 6 3 3 3 2 2 2 1 1 0 0 0 -0 0 0
9 8 8 7 7 7 6 5 5 5 5 7 10 8 5 5 4 3 4 4 4 3 3 5 5 5 5 5 6 6 5 5 5 5 6 5 5 4 4 4 4 4 4 5 7 8 8 8 8 8 8 9 8 9 10 9 9 11 12 11 10 10 12 12 11 12 12 12 10 9 9 7 9 10 4 2 3 2 2 2 1 1 0 0 0 0 0 1
8 8 8 7 7 7 6 6 5 5 6 8 8 5 3 4 4 3 4 4 3 3 3 4 5 5 4 4 5 5 4 5 5 5 6 6 5 5 4 3 4 4 2 3 6 8 8 8 8 8 9 9 8 10 11 9 8 9 10 11 11 12 13 13 12 12 12 12 10 10 9 8 10 9 5 3 3 2 2 2 1 1 0 0 0 1 1 1
9 9 9 7 7 7 6 5 4 5 8 9 7 4 3 3 3 3 4 3 3 3 4 4 4 4 4 4 5 4 4 5 5 5 6 6 6 5 4 3 4 4 2 3 6 7 8 9 9 9 9 9 10 11 11 10 9 9 9 10 11 11 12 12 12 13 13 12 11 11 10 11 11 9 6 5 4 3 2 2 1 1 1 1 1 1 1 1
8 9 9 7 7 7 6 5 6 7 9 7 5 3 2 3 4 3 3 3 4 4 4 4 4 4 4 4 4 4 3 4 4 5 6 6 6 6 5 4 3 3 3 3 4 6 9 11 9 9 10 10 10 10 9 10 9 9 10 10 11 10 11 12 11 11 13 13 12 12 12 14 13 8 7 6 4 4 3 2 2 2 1 1 1 1 1 1
7 9 9 7 7 6 6 7 5 4 5 4 3 2 2 3 4 4 3 3 3 4 4 4 4 3 4 4 4 4 3 4 4 5 5 6 6 6 5 4 3 3 3 5 5 6 9 11 9 9 10 10 9 8 6 7 8 9 10 11 11 10 11 13 12 10 9 12 13 12 15 17 11 5 6 7 5 5 3 2 2 2 2 1 1 1 1 1
8 9 9 7 7 7 8 8 2 -1 3 5 3 3 3 4 4 4 4 3 3 4 4 4 4 3 3 4 4 3 3 4 5 6 6 5 6 6 5 4 2 2 3 6 7 6 8 10 9 9 9 9 9 7 5 6 6 7 8 8 9 10 12 14 15 12 9 10 11 11 16 16 7 2 5 6 5 5 4 3 3 2 2 2 1 2 1 1
9 10 9 8 7 6 8 9 4 1 4 3 1 2 3 3 3 4 4 3 3 3 4 4 4 4 4 3 3 4 4 5 5 6 6 5 5 6 5 3 3 2 4 8 8 7 8 9 9 9 9 9 9 6 4 6 7 8 9 7 8 9 10 11 12 11 11 11 11 12 16 16 7 2 4 4 5 5 4 3 3 2 2 2 2 2 1 1
8 8 8 8 8 8 9 10 8 6 5 2 2 4 3 2 3 4 4 3 3 3 4 4 4 4 4 3 3 4 4 5 6 5 5 5 6 6 4 3 3 3 4 7 7 7 8 7 8 11 10 10 10 10 9 9 9 9 9 7 7 7 8 9 10 11 12 11 10 13 17 16 7 2 4 4 4 5 3 3 3 3 2 2 2 2 1 1
8 7 7 7 7 7 6 6 7 7 5 3 4 4 3 4 3 3 3 3 2 2 3 3 3 3 2 2 3 3 3 5 5 5 4 3 5 5 4 3 2 2 4 5 4 6 6 4 6 11 11 11 11 11 10 9 8 9 8 8 7 6 8 10 11 14 15 10 8 13 17 15 8 3 4 4 4 4 3 3 3 3 3 2 2 2 1 0
9 9 9 8 6 4 3 1 3 6 6 5 6 4 3 5 4 2 3 3 2 2 2 2 2 2 2 3 4 4 3 3 3 4 3 2 3 4 3 3 2 1 3 5 4 5 6 3 4 8 10 10 9 7 6 5 7 9 9 8 8 6 6 9 12 15 14 10 10 13 13 14 12 7 4 3 3 4 3 3 3 3 3 2 2 2 1 0
9 9 8 8 8 6 5 3 3 5 5 5 7 5 3 5 4 3 3 3 2 2 2 1 1 2 3 3 5 5 3 2 4 4 3 1 1 2 2 2 2 2 3 4 3 5 8 7 4 5 6 5 5 5 3 3 7 9 9 9 9 7 7 10 13 14 12 11 14 13 10 13 15 10 5 4 3 4 4 3 3 3 3 2 2 1 1 0
7 7 4 5 7 7 7 5 3 4 4 4 4 3 3 5 5 5 4 3 2 2 3 4 2 1 1 0 3 6 4 4 6 4 2 2 1 3 5 4 2 1 2 4 4 5 8 8 5 4 5 4 3 4 3 5 6 6 7 8 8 7 8 11 12 10 10 14 16 11 9 13 16 11 6 4 3 4 4 3 4 3 3 2 2 1 1 -0
5 6 3 2 5 5 4 3 2 3 4 4 3 3 4 5 6 4 2 3 5 3 3 6 4 1 1 -1 0 5 5 7 8 4 2 2 1 3 7 7 5 2 1 4 4 3 7 8 5 5 7 7 5 4 3 6 8 8 8 7 7 7 7 9 9 7 8 11 9 6 8 13 12 8 6 5 4 4 4 4 4 3 3 2 1 1 1 -0
6 7 5 4 4 3 2 2 3 4 4 3 5 4 3 5 6 3 0 3 6 5 3 5 4 1 1 0 0 3 4 5 7 4 2 2 2 2 4 5 4 3 2 3 3 3 7 7 4 5 8 9 7 5 4 6 8 10 10 7 6 7 7 7 8 7 8 9 7 5 8 12 9 4 4 4 4 4 4 4 3 3 2 2 1 1 1 0
5 5 5 7 7 3 2 2 2 5 5 4 6 5 3 5 4 3 2 2 3 4 3 3 2 1 1 1 2 3 2 1 3 2 0 1 2 2 2 2 1 3 3 2 2 4 6 6 3 5 10 11 7 5 6 6 7 10 11 10 8 9 9 9 8 8 9 10 9 7 11 14 9 3 3 4 3 4 4 3 3 3 2 2 1 1 1 0
3 3 4 7 8 4 3 3 2 5 7 5 4 3 3 4 2 2 5 3 0 1 1 0 1 2 3 4 3 2 1 0 1 0 -1 -0 -0 -1 1 0 -1 1 2 2 2 2 3 6 6 5 10 12 6 5 7 8 10 13 12 9 9 9 9 9 8 7 7 9 11 12 14 13 7 4 5 4 3 4 4 3 3 3 2 2 2 1 1 1
Height
849 848 847 846 845 844 844 843 842 841 841 840 839 839 838 838 837 837 836 836 835 835 834 833 833 832 831 830 829 827 825 824 822 821 820 819 817 817 817 817 818 818 818 817 816 815 815 815 815 814 814 814 816 816 815 815 814 816 818 820 818 814 811 806 804 804 801 801 801 802 800 798 802 803 800 801 804 806 809 809 809 807 806 806 807 808 811 814
849 848 847 846 845 844 843 843 842 841 840 840 839 839 838 837 837 836 836 836 835 835 834 833 832 832 831 830 829 827 825 824 822 820 819 818 817 817 818 818 818 818 817 817 816 816 816 817 816 816 816 817 818 817 816 815 813 815 816 817 813 807 804 798 796 798 797 801 803 803 804 802 805 806 801 805 811 809 811 813 811 811 810 809 809 811 814 815
848 847 847 846 845 844 843 842 842 841 840 839 838 837 837 836 836 836 836 835 835 834 834 833 832 832 831 830 829 827 825 823 821 819 818 818 818 818 818 818 818 818 818 817 817 817 817 818 817 817 820 820 819 819 819 816 813 813 814 816 810 802 801 796 794 797 797 799 802 805 805 806 810 808 803 808 815 814 815 817 816 816 815 813 812 813 815 817
849 847 846 846 845 844 843 842 841 840 839 838 837 837 836 836 835 835 835 835 834 834 833 833 832 831 831 830 829 827 826 823 820 818 819 819 819 819 819 819 818 818 817 817 817 817 817 818 817 818 821 823 823 821 821 817 814 812 811 813 806 802 802 797 795 797 797 797 801 805 805 809 811 809 808 807 813 819 820 820 819 817 816 815 815 815 817 819
849 847 846 846 844 844 842 841 840 839 838 837 837 836 835 835 835 834 834 834 833 833 833 832 832 831 830 830 828 827 826 822 819 818 819 819 819 819 819 818 818 817 817 817 817 817 817 818 818 820 822 825 825 823 821 818 815 813 809 807 804 804 803 799 797 797 797 796 798 804 807 811 813 816 817 813 818 827 828 824 819 817 817 818 819 820 821 823
849 847 847 846 844 843 842 841 840 839 838 837 836 835 835 834 834 834 833 833 832 832 832 832 831 831 830 829 828 828 827 821 818 820 819 819 819 818 819 818 818 817 816 817 816 817 818 818 819 822 824 827 828 826 823 819 817 816 809 804 804 804 804 801 798 798 796 795 798 803 807 811 817 825 826 824 830 834 832 827 822 821 822 822 822 825 827 828
849 848 847 845 844 843 841 840 839 838 837 836 835 834 834 833 833 833 832 832 832 831 832 831 831 830 829 829 828 828 829 823 819 820 819 819 819 818 819 818 818 817 816 817 817 818 819 820 820 822 827 827 826 827 825 821 819 819 812 805 804 803 804 802 800 799 796 795 799 801 805 810 818 828 830 832 837 835 833 829 825 826 825 824 826 829 832 834
848 847 846 845 844 842 841 840 839 838 837 836 834 833 833 833 832 832 831 831 831 831 831 831 831 830 829 829 829 830 830 823 819 820 819 819 819 818 819 818 818 818 817 818 817 818 819 821 822 823 828 826 825 826 825 822 819 818 815 807 804 803 803 803 801 800 798 799 800 801 807 814 819 828 835 839 839 837 834 830 828 827 828 829 830 834 836 839
848 847 846 845 843 842 841 839 839 838 836 835 834 833 832 832 831 831 831 830 830 830 830 830 830 829 829 829 830 830 825 820 819 820 819 819 819 819 819 818 819 818 818 818 818 819 819 822 823 822 826 825 825 826 825 826 820 816 815 809 807 805 803 804 803 801 801 801 800 804 813 818 818 826 840 844 840 840 834 831 833 829 831 835 835 839 842 843
848 847 845 844 843 842 840 839 839 837 836 835 834 833 832 831 831 830 829 829 829 829 829 830 829 829 830 828 831 830 821 819 820 819 819 819 819 819 819 819 819 819 819 819 819 819 819 821 822 821 823 823 825 826 825 826 821 815 816 812 808 806 804 804 805 803 802 802 801 806 816 818 814 820 840 847 841 840 836 835 838 834 837 842 841 845 845 845
847 846 845 844 842 841 840 839 838 837 836 834 833 832 831 830 830 829 829 828 828 828 828 828 828 828 829 828 832 830 820 820 821 819 820 819 819 819 819 820 819 819 820 820 820 820 820 821 821 822 823 823 824 825 823 822 820 817 817 815 809 807 806 805 806 804 802 805 803 804 813 816 814 823 841 848 844 841 839 842 843 842 845 847 848 849 847 849
847 846 845 844 842 841 840 839 838 837 836 834 833 832 831 830 829 829 828 827 827 827 827 827 827 827 828 829 830 826 820 821 820 819 820 819 820 819 819 820 819 820 820 820 821 820 821 820 821 823 823 823 824 825 822 820 820 817 817 816 810 808 807 805 807 805 802 805 802 801 814 820 822 836 847 849 848 841 840 847 849 849 852 853 853 852 851 854
846 845 844 843 842 840 839 838 837 836 835 834 833 831 830 828 828 827 827 827 826 826 826 826 827 826 828 828 824 821 820 820 819 819 819 819 819 819 819 820 820 820 820 820 821 820 822 821 821 822 822 824 824 822 820 819 819 818 817 816 813 811 808 804 804 806 804 803 799 798 817 833 837 847 850 850 849 841 843 852 854 856 857 857 856 855 857 858
846 845 844 843 841 840 839 838 837 835 834 833 832 830 829 827 827 827 827 827 826 826 826 826 827 826 828 826 820 820 820 819 819 819 819 819 819 819 820 820 820 820 820 820 821 821 822 821 821 822 823 825 823 821 821 821 819 818 816 813 813 812 807 801 800 806 806 803 799 799 823 847 850 852 852 853 852 843 849 858 857 860 861 860 859 860 862 862
845 844 843 842 841 840 839 837 836 835 834 833 831 829 828 826 826 826 826 826 826 826 825 826 827 826 829 825 819 820 819 818 819 819 819 819 819 820 820 820 820 820 820 820 821 821 821 821 822 823 824 824 823 825 826 823 819 818 817 810 809 810 805 801 800 804 805 804 803 804 831 858 858 859 857 857 858 849 852 862 861 864 865 863 864 865 866 865
844 843 842 841 840 839 838 837 836 835 834 832 831 829 827 826 826 826 826 826 826 826 826 827 826 827 829 825 819 819 819 819 819 819 819 819 819 820 820 820 820 820 820 820 821 821 822 822 823 824 824 824 827 830 830 829 823 818 816 808 804 806 806 804 800 801 802 808 813 810 832 859 863 865 863 861 864 856 854 864 865 867 870 867 868 871 869 867
843 842 842 841 839 838 837 836 835 834 833 832 831 829 828 827 826 826 826 827 827 827 827 827 827 828 827 822 819 819 819 819 819 819 819 819 819 820 820 820 820 821 820 821 821 821 822 823 824 825 826 827 829 831 833 833 826 817 816 811 803 801 804 802 799 804 807 815 828 828 841 863 868 868 867 866 868 862 859 865 868 869 871 872 874 875 871 869
842 841 841 840 839 837 836 835 835 834 832 832 830 829 828 828 828 827 827 827 827 828 828 828 828 828 824 821 821 820 819 819 818 818 818 818 819 819 820 820 821 821 821 822 822 822 824 825 828 828 830 831 829 832 834 828 820 814 814 813 804 798 800 799 800 811 815 824 837 839 853 869 870 870 870 871 872 867 865 867 870 872 874 878 879 876 871 872
841 840 840 839 838 836 836 835 834 833 832 831 830 829 829 828 828 828 828 828 828 828 828 828 828 827 823 821 821 820 819 819 818 817 817 817 817 818 819 820 821 822 824 826 825 825 825 827 832 832 832 831 828 830 828 820 817 819 817 812 806 799 798 800 807 816 818 832 849 847 858 872 872 875 875 875 876 870 868 870 871 874 879 883 880 876 875 877
840 839 838 838 836 835 835 834 834 833 832 831 830 829 830 830 830 829 828 828 827 826 825 825 825 824 822 821 820 819 818 817 817 816 816 816 816 817 819 820 822 824 827 828 828 827 828 831 834 830 826 825 825 825 823 820 820 825 823 815 807 800 805 812 818 819 811 831 863 861 862 874 875 881 881 879 879 873 871 873 874 877 880 883 881 879 881 882
839 838 837 836 835 834 834 834 833 833 832 831 830 830 832 833 832 830 829 827 824 824 824 824 824 823 821 819 819 819 819 818 816 815 816 816 816 817 820 821 824 827 828 829 829 829 830 832 829 824 823 822 822 823 822 823 822 825 825 818 811 807 814 822 821 818 808 827 865 867 865 878 880 883 885 883 882 880 879 877 877 879 881 883 883 882 883 882
838 837 836 835 834 833 833 834 833 832 832 832 831 831 832 832 832 831 831 829 824 823 824 824 824 823 820 818 818 818 821 820 816 815 815 816 817 817 819 822 825 828 829 829 831 833 833 830 824 822 823 820 819 821 821 823 822 824 825 817 814 814 817 823 823 820 813 827 860 866 866 882 885 884 887 886 887 886 884 882 881 882 882 884 883 882 882 881
837 836 834 834 833 832 833 833 832 832 832 831 831 831 831 831 831 831 831 831 827 823 822 823 823 822 820 818 818 818 820 821 817 815 814 815 818 818 820 823 826 828 829 830 831 834 833 827 823 821 821 820 821 820 819 822 822 822 825 816 812 813 809 813 825 826 819 827 850 858 865 880 884 886 889 888 889 889 887 885 883 884 884 884 883 882 883 883
836 835 834 832 832 831 832 832 832 832 831 831 831 830 831 831 831 831 832 833 830 824 821 821 820 821 820 818 818 818 819 819 817 814 812 814 818 820 820 822 826 828 829 829 829 832 828 821 821 821 821 821 821 821 820 823 822 819 822 817 811 811 805 810 823 828 830 837 839 838 851 874 883 886 891 890 889 889 889 887 886 887 887 884 884 883 884 885
834 834 832 831 831 831 830 830 831 831 831 831 830 830 831 831 831 830 831 831 827 822 820 819 820 820 819 818 818 818 818 816 813 812 811 812 815 818 820 821 824 827 827 827 829 830 825 818 821 823 823 822 821 822 821 820 818 815 815 813 811 812 811 817 819 820 835 844 834 819 827 862 885 887 891 892 891 891 890 889 889 889 888 886 885 885 886 887
833 833 831 831 830 829 830 830 831 831 831 830 829 830 830 831 831 830 832 829 820 818 818 818 820 819 818 818 818 817 818 815 810 811 811 811 812 813 819 821 821 824 824 826 828 827 823 819 820 822 824 824 821 821 819 816 817 815 807 802 808 813 815 816 808 809 825 829 827 819 816 847 880 886 890 893 891 893 890 889 890 890 889 889 888 888 889 889
833 832 830 830 829 829 829 830 831 831 831 830 830 830 830 831 831 831 830 822 816 818 819 818 819 819 817 816 817 817 817 813 809 810 810 810 811 811 815 820 820 821 822 825 826 822 820 820 821 822 823 824 823 820 816 813 814 812 804 801 808 811 812 808 798 802 814 814 820 823 816 834 864 880 889 892 891 892 891 889 890 891 891 891 891 891 891 891
832 831 830 829 829 828 828 829 830 831 831 831 830 830 831 830 831 832 826 817 816 819 818 818 817 816 816 815 816 817 814 812 811 809 809 810 811 812 815 816 817 818 819 821 822 818 818 820 819 819 821 822 820 815 811 811 810 806 803 806 805 803 806 806 801 803 809 809 816 822 817 822 851 880 889 888 891 891 891 890 890 891 892 892 892 892 892 892
831 830 830 829 829 828 828 828 829 830 830 831 831 831 831 830 832 831 823 816 817 818 817 817 816 816 816 815 815 816 815 814 813 811 810 810 809 811 815 814 813 817 819 818 818 817 818 819 817 815 817 817 813 810 808 807 806 803 806 811 805 801 804 805 803 804 805 806 812 822 820 813 838 878 888 884 886 885 886 889 888 891 892 892 893 891 892 893
829 829 829 829 829 828 827 827 827 829 830 829 831 831 831 833 831 823 817 817 819 819 817 816 817 817 817 818 816 815 816 815 814 814 812 812 810 810 814 815 815 817 819 820 821 821 819 818 817 814 812 810 808 810 808 805 804 803 810 813 806 804 804 800 801 801 801 808 816 826 827 813 819 856 877 873 869 870 879 887 887 890 891 891 892 891 892 892
829 829 829 828 829 827 827 827 827 828 828 829 831 830 831 833 829 819 815 820 822 819 819 819 820 819 820 823 820 815 815 813 813 814 813 812 811 812 815 815 816 817 819 820 821 821 819 817 815 812 811 809 808 809 807 806 803 803 812 810 804 807 805 800 802 800 801 809 820 830 832 816 806 830 858 861 858 863 872 879 883 887 889 890 889 889 891 891
829 829 829 829 828 827 827 827 827 828 828 829 829 830 833 826 820 824 823 821 820 820 824 825 822 822 824 826 822 816 815 813 812 812 811 811 810 812 814 812 813 816 820 819 819 822 819 814 812 809 810 808 808 811 810 808 805 806 814 806 797 805 806 803 804 805 808 817 825 828 825 817 814 831 852 853 856 865 866 868 874 878 882 885 886 887 890 891
828 829 829 828 828 827 827 826 827 827 827 829 828 832 833 816 813 833 837 828 825 826 829 828 825 828 827 824 820 818 816 814 814 811 810 810 810 812 814 812 811 813 817 817 816 820 817 812 811 810 810 806 806 811 808 807 808 808 810 802 795 802 802 803 807 807 813 824 831 826 817 817 822 838 855 853 854 863 864 867 870 873 878 881 884 886 888 890
828 829 828 829 828 827 827 826 826 828 827 829 829 828 824 814 821 840 841 836 834 830 830 831 830 828 824 822 821 820 818 816 816 814 811 811 813 816 816 813 813 812 813 814 813 814 811 812 811 805 806 804 803 805 800 802 807 805 806 801 797 797 794 800 807 805 811 823 830 825 818 819 823 840 860 858 858 864 865 870 873 875 880 880 884 886 886 889
828 829 829 828 827 826 826 826 826 828 827 828 828 823 820 825 841 850 845 843 841 836 835 834 833 826 819 820 822 822 821 818 817 816 814 815 818 821 820 817 816 813 810 810 809 807 804 808 808 804 807 806 801 801 797 798 803 806 807 799 795 797 797 806 812 808 812 821 828 830 833 844 848 856 867 862 862 868 867 871 875 876 880 881 883 886 885 887
828 829 828 827 827 826 825 825 827 827 828 827 820 821 831 839 849 854 848 844 843 844 840 831 829 825 818 820 820 820 822 819 818 817 815 819 821 821 822 819 817 816 814 808 804 804 804 805 806 807 808 804 800 800 799 800 801 802 802 798 800 802 798 805 811 808 808 814 827 833 839 856 853 849 863 866 864 870 869 870 874 874 878 881 881 883 883 884
828 828 828 828 827 826 826 827 827 826 828 825 817 827 845 847 848 851 848 844 845 849 845 832 828 829 827 827 821 819 821 818 818 818 815 817 819 820 822 820 818 818 819 814 804 800 802 804 806 806 804 802 803 802 801 804 803 799 796 796 801 804 797 798 808 812 809 811 827 834 837 847 836 828 855 869 864 867 868 868 871 873 875 877 878 880 880 881
828 828 828 828 827 827 827 826 827 827 825 826 828 841 852 848 846 848 845 845 847 847 847 841 835 834 836 834 824 823 825 818 818 821 816 815 817 818 822 822 818 817 822 820 808 799 798 803 808 805 801 803 803 800 801 805 806 803 800 797 796 797 793 794 802 807 808 817 830 833 836 839 827 827 850 860 854 858 863 865 867 868 870 872 875 876 877 878
829 829 827 828 827 826 827 826 829 828 820 824 836 845 851 850 847 847 845 846 847 846 846 844 841 839 838 835 830 830 829 824 823 822 817 817 816 816 821 823 819 817 821 819 810 804 797 797 806 804 800 803 800 798 800 802 805 807 806 802 798 798 796 797 801 797 798 814 824 826 829 821 809 817 831 835 839 846 851 856 858 860 864 868 870 873 874 875
829 830 827 828 826 825 827 827 828 827 824 834 845 849 854 852 845 846 846 844 843 843 842 843 845 844 838 835 835 834 834 831 828 822 819 818 816 816 819 821 821 818 820 819 817 811 795 788 802 805 799 801 801 803 807 807 807 807 806 803 801 804 800 797 805 806 800 803 809 817 816 796 792 808 814 817 829 836 840 846 851 855 861 865 867 869 871 872
830 829 827 827 826 826 826 825 834 841 840 845 852 853 854 850 845 846 845 844 843 840 840 842 844 844 841 838 836 837 836 833 828 825 822 818 815 817 819 821 823 821 818 815 813 808 794 789 802 805 800 803 806 812 819 818 815 810 805 801 799 803 799 789 799 816 817 806 802 807 793 775 795 820 815 813 822 828 837 844 849 854 858 861 864 866 868 870
829 829 828 827 825 826 824 827 848 858 847 843 849 851 850 847 847 847 844 845 844 840 841 841 841 843 843 840 838 839 838 832 825 822 821 821 819 817 818 820 823 824 819 808 804 805 798 794 802 808 809 808 808 816 822 820 820 816 811 811 807 802 795 784 784 801 816 815 812 809 786 774 809 832 819 816 820 823 835 842 846 853 855 859 862 863 866 868
829 828 828 827 826 827 824 826 844 852 845 847 853 851 849 848 847 846 845 846 844 843 842 838 839 840 839 841 840 837 836 830 825 822 820 823 821 816 820 822 820 823 816 802 800 803 799 799 804 807 810 806 805 818 825 820 818 812 809 816 814 807 803 799 796 798 806 808 806 802 783 776 810 833 824 822 822 822 833 838 842 850 852 857 860 861 865 867
831 830 829 828 825 826 825 823 830 837 843 851 850 844 847 849 847 845 845 846 846 846 843 839 840 838 837 841 839 836 835 826 825 828 826 824 819 815 822 822 819 820 814 806 806 800 801 812 809 799 804 808 803 806 807 807 809 808 810 818 819 819 816 809 808 800 796 807 810 796 776 776 809 831 825 823 825 825 833 837 839 846 849 853 857 859 862 865
831 829 829 830 826 827 832 834 833 834 842 850 845 843 846 845 845 847 845 847 849 849 847 843 842 842 843 844 840 839 837 829 826 830 831 832 824 817 822 823 824 824 816 814 814 805 811 830 819 795 795 801 800 799 800 805 811 810 813 816 816 822 816 803 801 788 783 813 822 793 773 779 807 827 825 824 827 827 832 836 838 842 845 848 853 855 860 864
830 827 827 829 830 833 840 847 844 836 840 845 840 845 848 841 843 849 846 846 848 849 850 847 847 847 844 840 835 836 839 839 834 831 834 839 831 823 825 824 825 826 817 813 815 812 820 837 835 815 802 803 810 818 826 828 817 806 809 812 811 821 821 807 796 781 784 813 813 790 786 784 788 811 825 826 827 827 831 835 836 840 843 845 850 853 857 861
830 831 834 831 829 833 838 846 847 841 842 842 836 843 849 843 843 845 843 846 848 848 850 851 851 847 842 839 831 828 839 842 834 831 837 842 839 832 828 826 826 823 817 814 816 813 810 821 836 834 825 829 832 833 840 838 821 810 811 811 810 818 821 804 788 785 795 801 787 788 804 789 773 794 816 822 825 824 826 829 830 835 839 842 848 852 855 860
830 835 844 840 833 835 836 840 847 847 846 846 844 848 848 844 841 839 840 846 847 848 845 842 848 850 849 852 838 825 833 832 825 833 839 838 839 828 815 819 826 824 820 817 816 815 808 814 833 835 831 838 840 836 838 831 824 824 820 815 815 819 815 800 792 801 801 784 776 796 808 785 772 791 808 814 819 817 819 824 826 830 836 841 846 850 853 858
835 837 845 845 841 845 847 847 851 849 847 848 847 847 845 841 839 843 850 847 839 846 844 833 841 850 850 858 851 832 827 818 812 829 839 838 840 829 811 809 817 823 826 820 819 821 813 812 829 831 822 823 828 836 838 823 813 816 815 817 820 819 817 811 809 817 813 800 806 822 812 787 785 802 809 813 818 818 821 826 828 832 837 840 845 848 851 855
832 832 839 842 843 850 853 852 851 847 849 850 843 843 848 843 839 847 857 848 833 840 845 836 841 850 848 853 852 840 834 827 820 829 840 838 836 835 829 824 823 825 826 825 827 823 810 814 834 833 813 807 818 831 835 825 812 803 804 817 821 815 816 817 815 818 815 809 820 827 810 792 799 814 815 814 819 822 823 827 829 833 836 839 843 847 848 852
830 830 834 834 838 848 851 853 854 846 844 847 841 843 847 842 842 848 850 850 845 842 845 844 845 849 848 847 846 842 844 846 839 839 844 841 835 836 837 837 838 830 825 830 830 824 817 823 839 832 801 796 820 828 824 826 820 802 794 802 808 806 804 806 809 811 804 799 810 814 796 783 798 816 817 817 820 820 822 827 829 831 835 837 839 842 844 847
831 831 833 830 833 846 850 852 855 845 836 842 846 847 846 844 850 850 838 843 854 850 850 853 849 847 843 838 840 843 845 848 847 846 849 846 844 845 841 841 845 837 834 835 832 837 836 821 829 834 800 791 825 834 821 816 801 783 786 796 798 798 799 802 807 810 806 799 796 790 778 781 802 812 809 814 820 818 818 820 821 824 829 830 831 833 835 838
Wind_Speed
12 12 12 12 12 12 12 12 12 12 11 11 11 11 12 13 13 12 12 12 12 13 13 14 14 15 15 15 16 15 18 20 20 20 12 3 6 4 1 1 3 5 7 8 12 11 9 10 11 13 9 4 2 1 2 0 1 1 1 4 6 7 6 6 7 5 3 2 1 3 4 4 3 4 1 3 6 5 7 7 5 7 8 9 15 22 24 23
12 12 12 12 12 12 12 11 11 11 11 11 12 12 13 13 12 12 12 11 11 12 12 13 14 14 14 15 15 15 19 20 19 16 6 4 8 5 2 4 3 4 6 7 9 10 7 6 8 9 6 2 2 2 1 1 3 3 1 4 8 6 4 5 7 4 3 3 1 3 5 5 2 3 1 4 4 4 8 7 6 10 10 12 18 22 21 21
13 12 12 12 12 12 11 10 11 12 12 12 12 13 13 13 12 12 12 11 11 11 12 12 13 13 13 13 13 15 18 17 12 5 2 7 7 5 3 3 3 4 8 7 5 7 5 3 5 5 4 2 2 2 0 2 3 3 2 5 7 3 3 4 6 5 3 5 4 3 3 7 5 3 0 5 5 6 7 6 5 7 9 9 12 17 19 19
12 12 11 11 11 11 10 11 13 13 13 13 13 13 13 13 12 11 11 11 11 10 11 11 12 11 11 12 12 15 15 9 4 2 5 6 7 5 4 3 4 7 8 5 4 5 5 5 5 4 4 2 3 3 1 3 2 2 4 6 4 2 4 5 5 7 5 6 5 2 3 6 5 6 4 5 7 5 4 4 4 3 8 7 8 13 16 16
12 12 11 10 11 11 12 12 13 13 14 14 14 14 14 14 13 12 11 11 10 9 10 10 10 10 11 10 10 13 9 3 1 3 3 5 7 6 4 5 6 8 7 4 3 5 5 5 5 4 3 1 2 2 2 3 2 2 5 6 3 1 3 4 4 7 5 7 7 5 4 3 4 8 9 7 7 3 5 8 5 7 9 9 10 13 17 18
12 12 11 10 10 12 13 13 12 14 15 14 12 12 13 13 13 13 11 10 9 8 8 9 9 9 9 8 9 9 3 1 2 5 4 4 5 4 4 6 7 8 6 3 4 5 4 5 5 3 2 1 1 2 3 3 3 4 5 6 5 2 2 4 3 6 5 8 7 6 4 3 6 7 10 12 9 4 6 7 10 13 13 16 17 16 17 16
12 12 11 10 11 12 13 13 13 15 14 12 11 11 11 11 12 12 11 10 8 7 7 8 8 7 7 6 7 5 2 3 4 5 5 5 4 3 4 5 8 8 5 6 5 5 4 5 4 2 3 2 1 3 5 5 4 5 5 6 7 4 2 5 3 5 4 8 7 7 7 6 7 4 7 12 9 8 8 10 14 16 19 22 20 16 16 16
12 12 11 11 13 12 13 13 13 15 13 12 13 11 10 11 10 9 9 9 8 7 5 6 6 5 6 4 3 3 1 5 1 5 5 4 2 2 3 3 7 8 8 9 4 5 4 4 2 2 2 1 1 1 4 5 4 5 7 6 5 4 3 4 2 4 5 7 7 9 9 9 10 8 7 8 8 8 9 13 13 16 20 20 18 16 17 17
13 12 12 13 13 13 13 13 13 14 13 12 13 11 10 10 8 7 8 8 7 5 5 5 5 3 3 2 3 1 3 4 3 4 7 5 2 2 2 3 7 8 9 8 5 5 3 1 1 2 3 3 0 1 3 3 2 3 5 6 5 4 4 2 2 4 5 5 7 11 12 13 12 9 7 5 6 6 10 16 13 14 18 16 16 16 16 16
13 12 12 13 14 13 14 13 13 14 12 12 12 12 11 10 8 8 8 8 6 5 5 4 4 2 1 1 3 0 4 2 3 3 10 7 2 1 3 4 6 8 7 6 5 4 3 3 2 2 3 1 0 2 3 2 3 5 6 7 8 5 4 2 2 4 5 4 7 12 11 10 7 5 4 2 5 5 12 18 14 15 17 15 15 14 16 19
13 13 13 14 14 14 14 13 13 13 12 12 12 12 11 10 9 8 8 7 6 5 4 3 3 2 3 2 3 3 3 2 2 9 12 8 4 3 3 4 5 6 6 5 4 3 4 5 3 2 1 1 0 1 3 4 4 7 7 8 8 5 4 5 3 4 5 2 5 13 9 4 3 5 6 3 4 7 15 18 15 16 15 14 14 13 16 20
13 13 13 14 15 14 14 13 12 12 12 13 12 12 12 11 10 8 8 6 4 4 3 3 2 3 2 1 4 7 6 7 10 13 11 9 7 6 5 4 3 4 4 2 2 2 3 2 4 3 1 1 1 0 3 4 4 6 6 6 8 6 5 7 6 5 2 4 8 13 7 3 6 8 8 4 3 11 17 16 15 15 13 12 12 11 15 18
14 14 13 14 16 15 14 12 12 12 12 13 13 14 14 13 10 8 6 5 4 4 2 2 2 4 2 0 5 7 10 12 12 11 10 10 8 7 6 5 4 3 3 2 3 0 0 1 3 2 1 1 1 3 2 4 3 5 6 4 6 7 6 7 9 6 2 6 10 9 4 3 9 10 8 4 3 12 18 14 13 12 10 10 10 11 13 17
14 14 14 15 16 15 13 12 12 11 12 13 14 15 15 12 8 5 4 4 4 3 2 3 3 4 3 3 7 7 8 8 8 8 8 7 6 5 4 3 2 2 3 3 2 1 0 1 2 2 1 1 1 3 4 3 2 3 6 5 5 7 7 6 9 7 3 3 3 2 4 4 9 10 11 10 8 11 18 13 13 11 9 9 10 11 11 15
15 15 14 15 16 15 12 12 12 11 12 12 14 16 13 8 5 3 3 3 1 2 3 4 5 3 2 5 8 6 6 5 6 8 6 5 4 3 2 3 1 0 2 2 1 3 2 2 2 2 0 1 1 3 4 2 2 2 5 5 6 7 7 5 7 9 7 1 6 1 6 4 7 11 13 12 9 10 18 13 13 12 10 10 10 10 9 13
15 15 15 15 16 14 12 12 12 12 12 12 15 15 10 6 2 2 1 0 1 2 3 3 5 3 1 4 6 5 2 2 7 8 5 5 4 2 4 4 2 2 1 1 3 3 2 2 2 1 0 1 2 1 2 2 2 3 5 5 7 9 7 5 6 9 9 2 10 4 9 5 6 11 13 12 10 9 17 13 13 11 9 11 9 8 8 10
15 15 15 16 16 15 13 13 13 13 13 13 15 11 6 5 3 3 3 3 3 2 2 2 4 3 1 4 5 4 2 3 6 6 4 5 5 3 4 4 3 3 3 4 3 2 2 2 1 1 2 1 2 1 1 3 4 5 5 4 6 10 9 6 7 5 5 9 11 12 13 8 8 10 12 13 10 8 15 13 12 11 9 10 8 7 9 11
15 15 16 17 17 15 13 13 13 14 13 13 13 7 3 4 4 4 5 6 4 3 3 3 2 1 2 4 4 2 4 6 7 8 8 7 6 6 4 1 2 3 3 4 2 1 2 2 1 1 1 0 1 2 4 5 3 4 6 5 4 8 12 9 7 6 12 16 12 14 14 10 11 11 11 11 9 9 14 12 11 11 10 8 6 7 10 11
15 16 16 17 17 14 14 14 13 14 12 12 11 3 1 2 3 3 5 5 3 2 1 0 2 1 3 4 4 4 7 9 10 9 6 3 3 3 1 2 2 3 3 2 1 1 1 1 2 1 2 4 5 6 8 7 2 4 4 6 5 6 10 6 8 10 16 17 11 12 13 10 12 11 10 9 7 9 13 11 10 10 9 7 6 8 9 10
15 16 16 16 15 14 14 14 13 13 10 11 10 3 0 2 2 2 0 1 2 3 3 4 5 2 4 3 4 8 10 8 6 5 4 2 3 6 3 2 4 4 2 2 1 1 2 2 2 5 6 6 7 6 8 9 5 7 8 6 7 6 3 6 11 9 12 15 8 9 15 13 12 11 10 8 7 10 12 11 10 10 8 6 7 9 9 8
15 15 15 15 14 13 14 13 13 11 7 8 9 3 2 1 1 2 3 2 5 5 4 4 4 5 8 8 9 8 5 3 3 3 3 3 5 7 1 2 4 1 1 3 1 2 2 4 7 7 5 3 5 6 7 8 7 5 7 6 5 4 3 6 8 4 7 13 4 4 15 13 10 11 9 9 9 11 11 10 10 10 9 7 7 9 8 7
15 14 14 13 12 12 13 12 12 9 5 6 6 3 3 2 1 1 1 2 5 5 4 3 2 6 9 11 11 4 2 2 5 5 5 4 2 4 1 3 4 2 2 2 1 0 2 6 7 4 4 3 4 6 6 7 6 4 7 6 3 1 6 6 4 2 5 11 6 4 12 12 9 10 9 10 9 9 9 9 9 9 8 7 7 8 8 9
14 13 13 11 10 11 11 11 11 7 5 4 1 4 2 1 2 2 1 2 4 2 1 2 2 3 5 5 4 3 2 2 3 5 6 7 1 3 4 3 4 4 4 4 3 3 4 4 4 4 5 4 4 4 5 6 3 3 6 5 3 5 5 4 2 3 5 7 11 10 11 9 6 8 8 9 7 6 8 9 8 7 8 8 8 8 9 10
13 12 11 10 9 9 9 10 8 4 4 4 3 3 1 2 2 2 1 0 3 3 2 3 2 2 3 3 1 3 1 3 3 3 7 10 3 1 3 3 5 4 4 7 6 5 6 2 1 2 5 6 5 5 5 5 3 5 6 6 3 5 2 6 7 8 10 8 12 13 9 4 4 6 6 5 5 6 7 7 8 7 6 7 8 9 9 9
13 12 10 9 8 7 8 9 4 2 5 2 5 3 0 2 3 2 1 2 2 4 2 2 1 2 2 2 3 3 1 2 4 4 8 10 6 3 2 2 3 4 6 8 6 6 8 5 1 0 3 6 6 5 5 5 4 3 6 9 5 7 9 12 15 12 9 4 6 6 5 1 3 4 3 2 4 6 5 6 8 7 7 7 7 8 8 8
13 11 9 8 6 5 6 4 2 5 5 2 4 3 0 3 4 2 1 3 2 4 2 1 2 2 2 2 2 2 2 3 3 3 6 9 8 4 2 2 1 3 6 6 5 3 4 4 3 2 3 5 6 5 6 5 3 3 3 6 6 11 14 16 16 11 5 4 4 2 2 3 2 2 3 3 4 5 4 5 6 5 6 6 6 7 7 6
13 11 8 6 5 4 4 2 5 7 3 1 2 2 2 4 3 2 1 4 3 3 1 1 2 2 2 1 1 2 3 2 3 2 4 8 6 1 1 4 2 2 3 2 2 2 2 4 5 5 3 4 5 5 5 5 4 2 1 6 11 13 12 12 12 9 4 5 3 2 2 4 2 3 4 5 5 4 3 5 5 4 5 5 6 6 6 6
12 10 7 5 4 4 3 3 7 6 2 1 1 1 4 2 2 1 3 3 2 1 0 2 2 2 2 2 3 5 3 1 2 1 0 5 5 1 2 6 5 5 5 4 4 2 3 5 8 8 5 4 6 6 6 6 5 2 2 6 11 13 11 7 6 7 5 6 4 2 2 3 1 2 4 5 4 4 5 6 6 5 5 5 6 6 6 6
10 9 6 4 3 3 4 4 5 4 2 2 1 3 3 2 1 2 5 1 2 1 1 1 0 1 2 2 4 4 3 1 1 2 4 2 6 1 1 4 5 6 6 5 4 1 1 5 7 7 6 5 6 6 6 8 6 1 3 4 3 6 4 2 3 7 5 5 4 0 1 2 2 1 4 5 5 7 7 7 6 6 6 5 6 6 6 6
7 6 6 4 3 3 3 3 3 2 2 2 3 3 1 2 2 5 4 1 2 1 1 1 2 2 4 6 2 2 2 2 1 2 4 2 5 2 2 1 2 4 4 3 3 2 2 2 2 3 4 4 4 4 4 6 5 4 4 1 4 4 2 2 2 4 4 3 3 1 2 2 2 2 6 6 4 8 10 7 7 6 6 7 6 6 6 5
5 5 5 4 4 4 2 2 2 1 1 1 1 1 2 1 3 5 1 3 1 2 2 2 2 4 8 7 3 1 2 2 1 2 1 1 3 3 2 1 2 2 3 4 3 3 4 3 1 2 2 2 3 3 3 3 2 5 2 2 4 3 1 3 3 2 3 2 2 1 2 1 2 2 6 7 4 11 13 10 11 11 9 9 7 6 6 5
3 3 4 4 5 4 2 3 1 2 1 2 3 3 3 3 3 2 3 4 2 2 2 2 4 7 9 6 3 4 4 1 2 2 1 0 1 3 1 1 2 1 1 4 2 0 3 3 2 3 3 3 4 2 1 4 0 4 1 3 5 3 1 2 1 1 2 1 2 1 1 1 1 2 4 8 8 11 13 12 15 16 14 12 9 7 6 5
1 1 2 5 5 4 4 3 1 2 2 5 4 3 5 4 2 1 3 3 1 2 2 3 6 8 7 4 4 5 3 1 3 4 2 2 2 2 1 1 2 2 1 3 3 2 1 2 2 1 3 3 5 4 2 0 2 4 2 3 3 3 4 3 1 1 1 1 2 3 1 1 1 2 2 5 9 10 9 9 11 14 13 10 9 8 7 6
2 2 2 5 5 5 4 1 2 3 5 6 3 4 6 3 2 1 2 3 4 3 2 3 7 7 3 1 3 4 1 2 5 5 3 3 2 2 2 2 1 1 1 3 3 2 2 1 3 4 1 3 6 4 3 3 2 2 1 2 2 1 3 4 2 2 1 3 2 2 1 1 1 1 4 0 5 7 7 7 8 8 7 7 7 8 8 8
5 4 4 7 6 5 2 3 3 4 7 5 4 5 5 0 3 1 2 4 2 5 5 4 4 3 2 1 1 2 1 0 5 4 2 3 2 2 3 2 2 2 1 3 2 2 2 0 2 1 0 3 6 3 1 5 2 2 1 0 0 1 2 2 2 2 4 4 2 1 1 0 1 1 1 3 6 6 7 8 9 8 7 8 7 8 8 7
8 3 5 10 8 3 3 6 5 7 7 4 6 4 2 2 3 2 1 3 2 5 9 6 3 1 3 3 1 3 1 2 3 3 1 1 1 2 3 2 2 3 0 1 1 1 1 1 3 2 1 2 5 3 1 2 2 1 1 1 2 2 4 5 1 2 5 3 1 1 0 1 1 2 4 6 6 6 8 9 10 10 10 10 9 8 8 7
7 3 2 10 10 3 4 5 7 8 5 4 5 2 2 2 3 4 1 3 3 3 5 4 2 2 3 3 3 6 4 1 4 3 1 1 1 2 3 2 2 0 0 1 1 2 2 3 3 1 3 0 2 3 4 2 1 2 2 4 3 1 3 4 2 2 3 2 0 1 1 1 1 1 5 9 9 10 11 12 11 11 11 11 9 8 9 9
5 2 0 8 9 2 4 4 8 7 5 5 4 2 1 1 3 3 1 2 2 2 2 1 2 2 1 2 3 5 5 3 5 3 1 2 1 1 3 2 2 1 1 2 1 2 1 4 3 3 4 1 3 3 3 3 2 2 2 1 3 2 1 2 2 3 3 1 0 2 2 1 4 4 7 12 15 16 15 15 15 15 14 12 10 10 11 10
2 2 1 8 10 1 4 4 5 3 5 4 1 2 1 1 3 3 2 1 1 0 1 1 1 2 2 2 2 3 3 3 4 3 2 3 2 2 2 1 2 2 1 1 1 2 2 2 1 3 1 1 2 2 2 2 3 3 2 3 2 1 2 2 2 3 4 3 1 1 2 3 6 6 11 18 19 19 20 18 18 18 15 12 10 10 11 10
1 1 2 9 10 2 4 2 2 5 5 2 2 2 1 2 4 4 3 3 2 1 1 1 0 1 3 3 2 2 2 2 2 2 2 2 2 2 2 1 2 4 1 2 2 2 2 2 3 0 3 0 1 1 2 2 1 2 0 1 0 1 1 2 1 2 4 4 3 2 1 5 5 4 11 17 17 17 19 18 16 15 14 13 11 11 10 9
3 1 2 11 9 5 4 5 4 4 3 2 1 1 1 1 2 4 4 3 1 1 1 1 2 1 2 2 2 2 3 2 1 1 1 1 3 1 1 2 1 3 1 1 2 2 0 2 3 3 2 2 1 2 2 3 2 3 2 2 2 2 2 3 1 1 2 3 4 4 2 6 4 1 4 9 12 14 15 15 13 12 14 13 11 11 11 10
3 1 3 12 8 5 3 5 2 2 2 1 0 2 1 1 1 3 4 1 1 1 1 1 2 1 1 2 2 2 2 3 2 1 1 0 1 1 1 5 2 3 1 1 3 2 1 3 4 2 1 1 2 1 2 3 3 3 1 0 1 1 2 4 3 3 2 2 1 3 1 5 3 2 3 2 8 13 14 14 13 11 12 12 11 11 10 9
2 3 2 11 5 4 4 4 1 3 0 2 2 2 2 0 1 2 3 2 2 2 2 1 2 1 2 2 1 2 2 2 2 2 2 2 2 2 2 8 5 2 1 1 2 2 2 4 4 2 2 4 4 3 1 1 3 3 1 1 2 1 1 3 4 2 3 2 1 3 1 5 2 2 3 2 4 10 13 14 14 11 10 11 11 11 10 9
1 3 1 9 3 4 2 1 1 1 2 3 3 1 1 1 2 0 1 2 2 1 2 2 1 1 2 3 2 2 2 2 1 2 2 1 3 1 3 8 8 3 1 1 2 2 2 2 3 3 2 4 4 4 3 2 2 2 1 1 1 1 2 2 1 3 2 3 3 4 3 5 2 3 3 2 6 9 11 12 13 12 11 12 11 10 10 10
2 1 2 7 8 5 2 2 4 2 1 2 3 3 3 1 1 1 2 1 1 0 1 3 2 2 2 1 1 1 1 1 0 1 2 2 4 2 4 9 8 6 4 3 2 1 3 2 2 5 4 3 2 2 3 3 1 0 0 2 2 1 2 2 2 3 1 3 3 4 4 5 3 3 3 3 8 10 11 12 12 11 12 13 12 11 10 10
2 1 3 6 8 7 2 0 3 4 2 1 1 2 1 1 2 1 3 1 0 1 1 2 3 3 2 1 3 2 2 1 1 1 2 4 4 3 6 7 4 9 10 4 4 4 5 3 3 4 4 4 5 5 4 2 0 0 1 3 4 2 1 2 4 2 4 4 1 5 5 3 6 2 2 4 8 10 10 12 12 11 12 12 11 11 11 10
2 1 0 2 3 3 3 3 3 2 1 1 1 2 1 2 3 1 1 1 1 1 1 1 2 3 3 2 2 0 1 2 2 2 2 4 4 4 7 5 3 12 14 5 3 3 5 3 2 4 3 2 5 5 4 1 0 1 0 2 4 4 3 3 3 4 5 6 2 7 6 2 6 6 8 9 10 11 12 14 14 13 12 12 11 11 12 11
1 2 2 0 1 1 2 2 3 4 2 0 1 1 2 3 2 1 2 2 0 1 0 1 3 3 3 3 2 1 2 3 2 2 2 3 3 5 7 3 1 10 12 5 4 3 6 2 2 3 1 4 4 3 3 2 2 1 2 0 3 4 2 1 3 4 4 6 5 5 5 6 6 5 9 12 11 12 12 13 12 11 11 12 12 13 13 13
2 2 0 1 1 3 1 1 2 4 3 2 1 1 1 2 2 2 1 2 3 2 1 1 3 4 3 2 2 2 1 2 2 2 2 1 3 3 5 4 3 7 9 6 5 3 4 1 3 3 2 2 2 2 2 2 2 2 2 3 2 0 1 1 2 2 2 2 4 3 3 7 5 3 7 7 6 4 5 6 7 10 11 12 13 14 14 14
2 3 2 2 2 1 0 1 3 3 3 2 1 1 2 3 3 2 1 0 2 3 1 1 4 4 1 1 1 2 4 1 2 2 2 2 2 1 1 1 4 6 8 5 4 4 3 2 1 3 3 2 3 3 3 3 1 3 3 3 2 0 1 2 2 1 1 1 2 2 1 6 4 2 2 4 6 5 6 7 8 9 11 12 13 13 13 14
4 4 4 4 2 1 1 2 3 2 1 1 2 2 1 3 4 2 1 2 2 2 1 1 3 4 2 2 1 2 5 2 1 2 2 3 1 1 0 2 3 4 7 4 3 5 3 3 2 5 4 2 4 5 6 5 1 2 5 6 6 3 2 3 3 3 5 4 1 3 1 5 4 2 3 5 8 7 8 9 9 9 10 13 14 15 15 16
5 3 3 5 2 0 1 1 2 1 1 2 2 2 2 2 1 2 0 2 1 2 3 3 3 1 2 3 2 3 4 4 4 4 3 2 2 2 2 2 2 2 3 2 2 2 3 3 2 3 2 3 4 5 5 5 5 3 7 6 7 7 5 4 3 5 7 7 6 4 5 5 4 5 5 6 9 10 11 12 12 12 14 15 17 17 17 18
Wind_Direction
343 342 340 340 339 337 335 332 335 336 336 334 333 330 327 326 327 328 327 329 328 327 327 326 326 324 324 327 329 327 322 320 321 319 314 347 23 358 257 35 19 342 334 343 2 8 7 13 9 12 20 20 36 320 308 288 198 173 200 209 218 210 200 187 170 186 170 129 333 348 3 116 109 342 320 16 32 59 61 45 46 50 58 89 107 121 131 136
343 340 338 338 337 338 337 336 336 336 334 329 326 323 320 321 322 322 321 322 323 322 324 326 326 323 322 326 327 323 319 320 320 311 304 60 36 30 91 57 18 324 342 351 7 23 28 9 0 18 37 20 351 333 340 223 206 195 187 213 225 212 197 190 167 178 134 123 83 31 27 66 72 293 326 55 21 40 68 54 56 76 82 95 108 118 125 129
340 339 339 336 337 341 340 337 334 329 326 323 321 319 316 317 317 317 319 320 320 321 323 325 325 322 321 326 326 321 320 322 320 307 88 57 39 44 57 30 351 327 346 350 6 28 52 45 14 41 61 9 338 339 349 254 234 190 194 222 234 226 209 213 171 157 137 128 90 47 57 56 23 312 316 111 82 47 70 70 50 85 104 108 110 116 121 123
338 339 340 336 338 341 337 332 329 326 325 324 321 318 317 317 315 311 310 312 315 317 321 323 323 322 322 326 324 320 326 331 321 129 100 44 32 33 32 6 337 337 343 354 30 46 78 70 44 63 72 23 330 329 252 252 263 177 206 223 239 232 221 230 169 145 132 120 100 64 70 64 33 12 25 125 103 41 31 5 331 100 107 106 102 102 104 101
337 340 342 337 337 337 334 332 329 329 328 326 323 318 315 315 312 309 306 305 307 313 320 322 321 321 323 328 324 323 340 5 21 77 70 27 20 18 22 360 346 348 349 9 64 81 85 68 57 55 62 72 328 331 273 265 290 259 229 223 248 243 229 253 168 154 142 115 105 89 71 63 55 33 31 72 89 36 329 328 352 65 69 71 70 67 73 69
339 341 343 338 337 334 332 335 336 335 333 329 324 316 313 310 309 308 305 303 302 307 316 320 321 323 328 332 325 331 13 173 341 8 350 354 355 355 19 14 17 8 4 65 96 89 73 53 57 57 68 42 309 269 290 307 293 270 243 223 237 228 257 277 179 173 157 120 117 113 110 85 74 52 40 57 62 17 349 9 51 57 52 59 58 53 59 56
339 338 340 335 333 331 332 339 342 339 335 331 326 322 321 315 309 301 300 306 301 299 309 315 321 329 335 335 330 5 71 261 313 354 340 345 325 337 29 30 34 26 44 71 78 95 69 50 69 111 97 38 287 254 290 307 297 273 258 237 234 230 288 287 215 189 148 123 131 118 108 81 76 68 49 53 43 17 22 43 57 58 54 57 55 47 50 49
338 335 334 332 331 332 335 341 345 341 334 330 331 334 332 325 317 303 298 306 303 295 298 307 315 327 336 346 352 13 311 255 290 41 22 9 338 16 29 33 30 32 59 53 62 132 95 60 123 124 99 215 259 308 312 311 291 259 259 259 246 237 258 300 278 194 140 123 127 105 95 85 91 90 61 53 42 29 43 44 45 59 54 52 53 44 42 43
337 334 332 333 330 331 336 342 346 343 337 334 339 344 341 336 331 316 304 306 310 293 287 303 299 305 324 13 53 359 294 252 183 54 23 18 47 28 14 41 24 26 50 44 62 123 113 97 211 129 148 209 316 331 316 315 265 259 274 277 274 252 231 302 328 188 150 141 128 104 109 114 116 101 59 49 57 41 56 50 34 54 52 43 50 44 41 42
336 334 332 332 330 329 334 342 344 344 343 340 343 347 343 341 336 326 315 310 308 289 285 300 285 269 240 50 67 317 320 4 158 9 356 352 4 9 31 42 17 18 33 36 54 87 113 129 190 144 140 203 305 243 264 249 272 315 321 297 282 272 240 249 331 198 152 145 140 118 123 135 136 114 85 57 65 49 57 52 34 49 53 41 46 45 42 43
335 335 332 330 328 327 331 337 340 342 342 339 341 341 338 337 333 329 325 310 297 286 278 276 276 249 189 136 107 215 303 24 285 323 332 330 337 334 357 12 4 10 13 29 42 69 120 128 148 133 122 218 187 262 257 253 293 300 304 301 275 267 248 229 274 227 151 129 141 117 110 112 77 83 108 117 75 71 63 55 40 46 52 42 44 45 43 43
335 332 330 327 325 324 327 331 333 337 337 336 337 335 332 328 319 317 321 312 298 294 267 244 243 207 177 131 193 236 294 322 307 307 309 316 327 323 324 325 332 344 343 17 25 75 129 123 107 100 271 223 64 316 255 277 313 289 284 286 245 241 246 210 222 254 169 156 148 116 92 46 72 87 103 109 84 78 68 58 48 46 48 44 42 45 45 42
333 330 329 327 325 324 325 325 325 331 335 334 333 332 328 317 303 302 315 316 315 314 243 201 208 193 159 172 239 272 309 315 307 299 300 310 314 311 311 301 289 287 293 303 303 290 126 311 113 123 288 75 240 249 289 314 307 275 268 255 223 232 242 200 195 241 285 167 161 133 128 60 73 84 80 31 352 74 68 55 54 47 44 46 43 49 46 40
332 329 329 327 325 325 326 325 320 324 332 333 333 331 325 313 292 286 297 301 322 315 208 174 177 161 130 267 275 312 322 309 310 318 319 315 308 307 315 313 291 254 256 280 299 306 277 243 119 91 72 124 260 301 336 325 269 267 261 241 209 217 215 192 186 198 235 187 188 159 139 71 58 53 35 6 342 76 78 56 56 49 40 48 43 50 49 45
332 329 329 327 326 327 327 326 319 321 330 332 334 332 330 322 285 260 287 295 323 237 185 151 165 145 54 283 288 318 315 312 339 351 355 341 317 317 10 22 30 332 251 256 123 111 114 112 86 70 252 277 21 1 333 303 250 244 247 217 193 212 199 188 189 180 189 131 2 359 135 79 42 35 29 15 346 73 85 65 59 52 41 51 46 49 53 52
330 328 328 326 325 327 327 327 323 322 326 331 335 336 344 350 314 189 231 147 97 188 164 144 174 152 38 282 307 328 311 352 354 353 11 7 354 5 15 17 31 43 41 73 118 126 91 78 89 105 96 2 73 62 327 303 266 229 235 211 189 200 187 182 189 185 191 86 16 47 124 104 46 39 33 23 357 64 86 73 65 57 44 53 50 48 55 56
328 327 326 325 324 325 326 327 326 325 325 332 338 342 12 35 64 109 129 126 110 129 109 113 171 150 331 283 307 323 305 341 346 343 333 333 330 322 348 12 34 43 69 71 104 133 39 43 56 59 59 58 111 114 185 238 244 223 225 239 206 191 184 178 167 159 128 94 65 73 94 91 67 55 44 30 6 53 80 77 72 64 53 52 52 53 56 58
327 325 325 326 324 324 326 327 328 328 327 335 342 349 50 58 57 76 106 118 106 105 80 57 112 147 292 289 295 290 299 313 320 312 300 300 287 278 302 346 60 46 50 40 54 81 29 26 28 20 16 61 150 155 198 221 232 225 221 233 235 186 184 182 152 114 88 91 85 83 85 78 69 57 53 40 11 51 75 77 76 69 60 49 49 56 54 56
328 326 325 326 323 321 324 325 329 330 329 340 350 3 118 46 36 73 112 114 97 109 122 239 143 165 274 269 271 298 308 305 301 292 273 262 246 227 184 128 83 60 56 21 7 49 76 52 44 148 221 215 196 186 209 228 276 337 290 246 242 192 184 160 119 112 98 84 58 80 92 77 65 46 42 37 11 54 73 74 74 72 66 49 44 53 53 55
327 326 326 325 321 319 323 326 330 332 333 346 356 8 88 28 28 351 336 154 197 187 193 213 193 227 284 272 291 315 315 297 277 258 220 208 164 143 117 77 66 60 91 132 162 12 81 138 222 219 217 217 209 201 216 240 284 335 324 276 244 212 180 109 120 133 103 84 42 71 89 75 65 49 29 18 13 43 60 67 69 71 72 60 53 58 60 59
326 326 326 324 318 319 324 329 332 330 332 348 1 32 151 144 67 314 303 277 248 226 227 235 218 252 267 273 291 310 329 304 268 247 209 195 148 144 126 63 93 81 157 140 147 6 77 195 229 225 213 213 206 208 226 250 264 290 293 273 252 221 122 100 126 153 100 98 101 87 82 68 59 58 33 21 31 35 42 59 64 67 73 67 63 65 64 62
327 325 325 321 316 320 324 331 332 325 327 349 16 86 166 210 238 261 285 305 276 236 229 257 252 268 268 271 277 273 71 335 306 286 197 160 129 167 172 102 134 182 159 127 102 14 224 236 251 230 194 214 208 204 220 246 240 240 269 261 250 183 113 93 58 54 89 102 141 143 85 73 61 61 48 34 39 33 32 48 56 62 69 63 62 61 58 59
326 326 326 318 313 318 325 335 329 312 325 345 60 125 140 322 303 264 254 303 290 264 204 216 206 267 282 288 263 167 126 226 279 288 187 154 115 172 147 128 157 159 156 176 176 186 220 243 257 217 191 213 238 230 225 248 236 185 255 270 204 189 147 112 38 30 54 101 143 132 90 87 80 65 58 45 41 35 31 40 46 49 62 66 65 59 56 58
324 325 325 317 314 317 325 332 316 290 333 330 193 164 118 23 340 254 222 252 297 293 234 211 202 223 257 304 242 167 181 203 203 268 181 155 119 130 155 149 154 165 192 197 193 212 228 221 25 201 192 196 217 241 230 237 242 187 229 267 214 189 135 103 121 94 66 95 138 121 88 75 70 66 66 49 42 42 32 40 46 36 42 59 66 65 61 58
324 324 320 318 315 315 327 328 302 292 336 298 194 190 129 8 333 253 177 60 322 292 272 213 207 207 237 269 234 211 268 233 214 216 178 163 144 124 177 173 157 190 196 195 202 232 243 240 3 6 209 199 199 226 227 218 245 224 220 245 221 144 115 116 125 113 90 135 185 140 105 81 68 81 87 69 59 53 37 46 55 41 34 42 52 59 58 59
323 320 316 316 310 316 334 338 323 328 329 258 194 193 215 334 316 256 133 59 349 294 318 176 196 212 253 227 197 227 252 250 243 209 189 183 168 141 160 163 160 200 183 186 206 242 253 229 192 180 212 206 201 225 228 207 229 265 227 216 180 133 134 140 134 123 116 151 204 229 153 142 128 116 128 131 102 81 64 62 64 56 49 49 51 55 54 54
322 318 314 310 304 318 330 325 325 327 321 249 206 202 316 316 287 245 66 37 349 283 286 229 200 190 245 231 196 240 227 274 290 218 190 190 176 87 146 162 146 180 151 147 218 223 192 192 181 171 189 205 210 226 215 190 201 257 58 156 154 140 148 158 139 126 129 119 101 339 101 122 146 144 155 154 123 111 110 96 88 85 80 79 79 76 74 67
322 317 310 302 295 304 301 287 311 322 309 268 252 301 314 300 218 199 84 51 316 262 190 260 230 190 236 254 239 245 249 323 290 265 101 186 177 50 219 189 172 167 156 162 211 214 150 190 191 172 182 210 211 219 195 181 210 231 116 167 162 148 157 176 130 112 133 133 113 346 57 99 119 128 152 164 154 170 173 152 135 124 119 112 106 102 95 89
323 317 312 313 307 305 304 283 289 305 290 271 308 312 296 168 154 61 77 78 281 61 125 237 344 224 273 291 246 242 273 304 250 326 355 220 194 157 220 199 167 164 172 183 210 249 158 205 200 173 189 213 210 225 200 188 216 164 129 198 147 119 149 184 122 117 136 147 132 326 2 105 158 183 168 184 204 200 183 163 151 145 146 143 132 127 118 112
326 317 315 321 318 314 317 307 298 279 253 275 295 286 184 140 84 54 48 279 274 315 196 84 23 308 334 338 311 206 243 262 256 311 343 269 207 152 88 116 130 149 176 206 233 263 273 262 218 181 203 209 200 231 231 210 206 91 92 193 59 51 6 18 58 97 114 143 114 38 341 78 137 220 191 195 197 169 164 161 160 159 162 163 158 152 146 136
329 317 314 318 314 310 319 341 349 208 226 297 268 161 103 23 65 82 57 254 259 319 339 21 334 327 349 345 320 278 277 276 299 295 328 277 193 149 108 127 131 123 165 204 229 273 308 329 280 248 242 155 164 232 297 300 194 97 69 203 107 69 22 41 1 37 98 140 86 62 306 70 111 214 203 203 166 151 161 165 166 171 177 177 172 162 153 138
325 312 314 328 317 303 308 331 29 120 188 147 137 101 79 4 23 107 263 301 331 320 334 324 318 334 334 324 305 309 309 304 311 317 3 33 130 123 122 181 159 131 171 194 184 329 292 269 228 285 280 157 147 201 315 347 239 111 60 198 143 108 123 111 39 71 99 39 25 359 306 69 206 258 213 197 173 165 173 171 170 173 176 177 170 154 146 141
334 356 341 338 325 305 319 332 102 135 154 145 128 63 77 68 14 243 274 322 280 274 328 308 313 323 314 310 330 321 314 36 346 338 360 25 68 93 37 5 148 155 181 178 159 132 235 267 218 260 296 199 155 171 188 343 197 159 144 200 167 118 146 150 121 101 95 61 356 316 11 69 252 316 297 199 174 171 173 167 170 171 169 166 156 148 150 157
118 88 360 338 329 303 302 321 127 154 158 140 110 49 70 69 309 329 327 274 258 300 337 317 315 318 320 308 328 333 347 52 9 344 342 13 43 36 358 354 156 193 168 150 168 189 157 288 219 177 220 201 173 195 193 117 132 187 168 176 159 112 148 149 152 168 124 107 80 333 346 159 200 339 334 358 134 142 146 145 153 157 156 149 145 152 160 166
141 109 23 4 348 312 269 154 145 159 156 128 68 62 82 157 269 354 312 259 275 323 305 303 318 316 338 300 274 351 339 69 8 356 352 18 37 6 342 320 337 346 201 167 182 226 168 358 286 230 349 173 174 213 170 102 103 259 253 112 96 150 136 116 156 143 98 95 89 35 279 201 135 195 306 88 108 127 136 143 153 155 155 154 158 167 167 169
159 143 27 18 10 1 110 131 151 157 151 101 56 69 135 195 209 176 250 275 308 318 308 322 1 359 337 319 299 352 313 202 348 355 49 69 73 10 338 272 320 5 349 203 173 193 177 57 353 343 23 175 182 180 58 97 167 186 187 228 231 177 129 114 121 72 83 100 102 86 132 359 44 190 168 141 143 156 157 163 170 168 166 168 174 178 174 175
175 193 13 20 19 54 102 121 157 150 125 73 76 112 215 200 189 189 243 317 305 311 328 344 3 6 344 307 312 343 333 293 341 349 25 43 109 12 345 288 272 232 75 319 243 210 178 90 23 349 124 201 240 129 67 358 132 120 205 203 168 97 83 96 92 52 81 133 159 12 277 272 262 203 160 165 180 187 183 180 179 177 176 180 182 180 179 183
191 235 294 16 9 60 104 122 160 145 89 60 79 136 198 183 195 202 224 318 298 327 3 346 299 345 356 282 303 333 329 339 351 351 7 346 324 39 354 316 262 243 343 325 295 271 212 99 14 314 138 85 316 113 99 338 13 86 251 210 105 91 72 86 122 135 124 130 254 314 330 222 215 202 175 188 196 193 188 186 186 187 185 183 183 182 183 186
198 314 272 1 353 33 125 145 167 96 63 71 84 192 206 260 249 230 212 205 166 155 344 293 281 338 329 291 291 317 334 5 347 341 31 345 319 109 61 313 264 301 315 192 188 307 307 103 61 305 198 151 345 64 128 294 360 39 358 344 28 102 146 138 130 135 129 129 178 337 355 253 226 195 186 198 197 187 185 189 191 190 185 183 183 182 185 186
110 344 245 351 352 176 155 138 104 46 60 122 202 220 272 290 271 270 242 217 176 171 241 267 249 317 303 297 299 310 337 4 324 338 33 328 308 107 81 33 300 312 313 189 236 290 328 40 116 288 321 54 99 36 146 175 27 57 120 266 337 59 126 147 82 78 120 135 162 142 283 256 242 185 190 198 195 187 186 186 187 185 182 183 184 183 186 186
77 27 274 354 356 188 148 50 50 42 71 136 200 217 307 265 267 306 286 249 234 196 158 151 183 271 302 311 321 309 322 325 307 318 303 334 1 44 89 74 318 297 359 109 250 240 49 50 109 113 25 34 240 257 163 161 177 160 177 222 169 134 139 124 86 320 113 125 163 152 202 257 272 356 216 197 184 185 185 181 181 183 181 181 185 186 187 184
83 171 284 354 352 193 106 49 51 57 103 146 264 200 260 302 265 310 305 319 309 259 64 108 174 189 212 247 299 314 322 310 303 317 271 309 351 234 349 13 340 224 170 177 253 261 120 93 80 71 50 262 266 265 150 166 162 146 155 48 117 133 102 116 172 206 122 93 152 125 181 261 272 2 324 239 180 176 175 177 180 182 181 182 186 187 185 182
100 194 306 357 342 182 75 40 326 13 107 251 278 206 217 260 188 299 315 5 345 317 2 326 197 184 203 206 271 314 324 308 291 326 310 273 280 227 354 353 340 202 175 293 297 338 54 86 75 34 323 314 326 352 341 181 116 108 312 44 99 249 73 130 186 172 115 146 135 98 228 266 289 353 337 328 165 163 168 177 178 176 179 182 185 185 181 176
131 202 310 5 357 179 86 51 204 329 289 306 340 309 271 210 166 357 329 333 328 338 341 292 271 286 232 189 161 220 296 338 319 337 340 298 308 8 36 359 353 9 25 301 305 348 41 61 88 93 42 349 347 348 317 273 102 114 255 346 77 185 98 114 152 69 94 196 146 123 222 256 295 1 1 94 141 154 169 178 176 175 179 182 185 185 179 172
59 211 267 8 39 86 104 180 155 146 257 339 347 331 340 303 199 171 189 243 307 308 307 295 322 340 258 184 89 292 340 32 249 344 12 322 304 318 14 2 2 360 332 290 307 27 96 83 97 124 144 176 199 243 241 235 261 23 294 4 35 85 107 139 124 79 128 193 137 142 214 265 296 1 30 138 154 161 171 176 180 182 181 182 184 181 177 172
69 54 292 345 27 58 77 181 104 114 144 114 315 315 10 323 288 220 178 183 228 143 22 322 335 336 304 49 51 9 346 308 265 20 12 324 297 284 333 341 353 352 344 351 28 56 106 82 51 108 138 176 192 219 245 256 299 317 340 360 15 19 26 101 106 135 177 152 183 221 204 295 302 256 166 189 176 171 175 176 182 187 183 183 184 178 175 175
92 124 358 334 353 24 31 9 34 72 140 165 220 309 322 297 310 306 195 190 160 135 50 351 9 352 319 1 38 357 322 324 343 39 351 305 276 275 311 309 340 356 355 7 20 44 101 72 25 85 89 202 204 231 269 294 154 195 7 352 351 355 8 86 133 207 164 126 257 250 179 192 271 215 189 197 185 179 185 185 185 186 182 179 177 175 176 177
62 156 159 112 288 325 10 353 29 50 34 54 128 43 331 314 324 297 271 312 71 118 358 342 18 6 321 330 349 311 347 6 7 355 300 306 302 312 333 320 336 6 8 6 347 49 104 107 208 134 123 229 223 277 284 201 179 191 133 174 329 356 20 146 209 224 146 138 242 254 174 197 250 225 203 200 190 188 188 184 181 177 174 173 173 176 179 179
89 124 167 25 123 184 208 307 65 63 35 25 44 95 165 259 281 254 273 346 351 340 49 20 327 333 338 352 354 288 297 52 17 296 238 297 321 326 357 336 307 9 22 17 355 40 99 135 205 139 98 241 246 310 311 116 150 211 191 200 222 340 109 149 229 257 108 145 255 273 223 241 262 249 224 199 173 173 155 148 161 168 172 174 175 181 183 183
135 152 169 66 66 146 147 23 76 66 13 10 324 260 162 190 242 254 233 99 323 312 26 113 291 304 346 48 52 278 287 11 33 324 182 144 335 307 89 278 277 342 13 31 356 352 65 118 220 88 73 312 320 4 5 17 166 208 250 249 209 167 235 173 167 188 148 220 292 40 330 275 279 262 224 141 127 125 131 152 171 175 176 176 180 186 187 186
123 134 140 108 67 15 20 28 81 90 356 332 230 236 213 216 216 199 248 221 210 278 283 171 269 300 357 41 62 285 291 290 325 303 189 167 320 322 159 204 221 321 356 31 4 349 51 87 1 50 85 271 333 13 349 345 19 237 271 250 204 181 212 198 183 191 179 172 108 65 6 263 243 140 101 126 146 153 160 172 178 180 180 181 186 191 190 189
121 103 119 109 85 9 106 39 44 89 241 240 205 216 262 272 232 113 343 273 205 256 254 205 203 295 351 346 303 248 239 218 230 261 234 219 288 311 319 292 228 280 337 56 49 12 79 94 36 53 85 268 320 1 345 8 31 307 269 237 203 192 188 190 220 232 200 160 137 173 218 222 185 150 137 155 171 178 184 186 183 184 187 188 192 194 193 193